Location: Spring Creek
(38.2870°N, 100.2160°W)
Time: 19:26:38
(UTC+00:00)

ISS - Visible Passes

Search period start: 28 May 2023 00:00
Search period end: 07 June 2023 00:00
Orbit: 412 x 419 km, 51.6° (Epoch: 28 May)

Date Brightness Start Highest point End Pass type
(mag) Time Alt. Az. Time Alt. Az. Time Alt. Az.
28 May -3.2 03:47:03 10° NW 03:50:18 49° NE 03:50:53 43° ENE visible
29 May -2.3 02:58:37 10° NNW 03:01:38 30° NNE 03:04:05 13° E visible
29 May -1.6 04:35:23 10° WNW 04:36:58 21° W 04:36:58 21° W visible
30 May -3.5 03:46:30 10° WNW 03:49:47 53° SW 03:50:11 49° SSW visible
31 May -3.8 02:57:50 10° NW 03:01:11 80° NE 03:03:27 19° SE visible
01 Jun -1.7 03:46:39 10° W 03:48:58 17° SW 03:49:37 17° SW visible
02 Jun -2.4 02:57:24 10° WNW 03:00:26 31° SW 03:02:58 13° SSE visible
04 Jun -1.0 02:58:36 10° WSW 02:59:22 11° SW 03:00:08 10° SW visible
